星链-1041 (STARLINK-1041 )

导读 | 星芒AI

STARLINK-1041 是 SpaceX 星链计划中的一颗低轨通信卫星,属于第 10 批部署的星链卫星群。该卫星于 2021 年 11 月发射,运行在约 550 公里的轨道高度,旨在为全球用户提供高速互联网服务。它采用先进的相控阵天线和激光通信技术,具备高带宽和低延迟特性。作为星链系统的一部分,STARLINK-1041 有助于扩大覆盖范围,提升网络性能,并支持偏远地区的互联网接入。

基本信息
目录编号:
44746
目录名称:
STARLINK-1041
国际标识:
2019-074AK
轨道中心:
EARTH
卫星名称:
星链-1041
卫星全名:
星链-1041 (STARLINK-1041 )
卫星状态:
已陨落 最后检测时间 2024-09-07
发射日期:
2019-11-11 UTC
国别 :
美国 (US)
星等 :
--
轨道信息
数据来源 国际轨道数据
星历时间: 2024-09-08T04:19:35+0800
轨道信息已过期470天
半长轴: 6559.79km
偏心率: 0.0013845
轨道倾角: 53.025°
近地点辐角 202.281°
升交点赤经 109.061°
平近点角 241.231°
近地点: 172.572km
远地点: 190.738km
周期: 88.124分钟
每日圈数: 16.340595
详细信息
固有亮度:
5
最大亮度:
2.5
卫星平台:
Starlink V1.0
覆盖范围:
全球
运营商:
太空探索技术公司
运营商所在国:
美国
制造商(研发单位):
太空探索技术公司
制造商所在国:
美国
使用方式:
暂无
卫星简介
星链(Starlink)计划是由太空探索技术公司(SpaceX)提出的一个巨型低轨卫星互联网星座项目,计划在2019年至2024年间在太空搭建由约1.2万颗卫星组成的“星链”网络,其中1584颗将部署在地球上空550千米处的近地轨道,并从2020年开始工作。该卫星仍在工作。